Weather History for Hazen, ND

Change the Weather History Date:

Wednesday, February 6, 2013

  Actual Average (KN60) Record (KN60)
Temperature  
Mean Temperature 26 °F -  
Max Temperature 37 °F 23 °F 46 °F (1998)
Min Temperature 15 °F 3 °F -20 °F (2004)
Degree Days  
Heating Degree Days 39    
Moisture  
Dew Point 22 °F    
Average Humidity 85    
Maximum Humidity 93    
Minimum Humidity 70    
Precipitation  
Precipitation 0.00 in - - ()
Sea Level Pressure  
Sea Level Pressure 29.83 in    
Wind  
Wind Speed 7 mph (ENE)    
Max Wind Speed 16 mph    
Max Gust Speed 18 mph    
Visibility 8 miles    
Events      
Averages and records for this station are not official NWS values.
T = Trace of Precipitation, MM = Missing Value Source: NWS Daily Summary

Daily Weather History Graph

Daily Weather History Graph

Search for Another Location

Airport:

Trip Planner

Search our weather history database for the weather conditions in past years. The results will help you decide how hot, cold, wet, or windy it might be!

Date:

Astronomy

Feb. 06, 2013 Rise Set
Actual Time 8:04 AM CST 5:56 PM CST
Civil Twilight 7:32 AM CST 6:28 PM CST
Nautical Twilight 6:56 AM CST 7:05 PM CST
Astronomical Twilight 6:20 AM CST 7:41 PM CST
Moon 4:58 AM CST (2/6) 2:09 PM CST (2/6)
Length of Visible Light 10h 56m
Length of Day
9h 51m
Waning Crescent, 17% of the Moon is Illuminated
Feb 6
Waning Crescent
Feb 10
New
Feb 17
First Quarter
Feb 25
Full
Mar 4
Last Quarter

Hourly Weather History & Observations

Time (CST) Temp. Windchill Dew Point Humidity Pressure Visibility Wind Dir Wind Speed Gust Speed Precip Events Conditions
12:15 AM 24.8 °F 15.3 °F 17.6 °F 74% 29.82 in 10.0 mi ESE 9.2 mph - N/A   Overcast
12:35 AM 24.8 °F 14.6 °F 19.4 °F 80% 29.82 in 10.0 mi SE 10.4 mph - N/A   Overcast
12:55 AM 24.8 °F 15.3 °F 19.4 °F 80% 29.81 in 10.0 mi ESE 9.2 mph - N/A   Overcast
1:15 AM 24.8 °F 17.9 °F 19.4 °F 80% 29.81 in 10.0 mi ESE 5.8 mph - N/A   Overcast
1:35 AM 24.8 °F 15.3 °F 19.4 °F 80% 29.80 in 10.0 mi SE 9.2 mph - N/A   Overcast
2:15 AM 24.8 °F 17.9 °F 21.2 °F 86% 29.78 in 10.0 mi SE 5.8 mph - N/A   Overcast
2:35 AM 26.6 °F 16.8 °F 21.2 °F 80% 29.76 in 10.0 mi SSE 10.4 mph - N/A   Mostly Cloudy
2:55 AM 26.6 °F 21.2 °F 21.2 °F 80% 29.76 in 10.0 mi NE 4.6 mph - N/A   Mostly Cloudy
3:15 AM 26.6 °F 21.2 °F 21.2 °F 80% 29.75 in 10.0 mi WSW 4.6 mph - N/A   Scattered Clouds
3:35 AM 26.6 °F 22.6 °F 21.2 °F 80% 29.74 in 10.0 mi SSE 3.5 mph - N/A   Mostly Cloudy
3:55 AM 26.6 °F 19.1 °F 21.2 °F 80% 29.72 in 10.0 mi ESE 6.9 mph - N/A   Overcast
4:15 AM 26.6 °F 18.2 °F 21.2 °F 80% 29.73 in 10.0 mi South 8.1 mph - N/A   Scattered Clouds
4:35 AM 24.8 °F - 19.4 °F 80% 29.73 in 10.0 mi Calm Calm - N/A   Clear
4:55 AM 24.8 °F 19.1 °F 21.2 °F 86% 29.71 in 10.0 mi SE 4.6 mph - N/A   Partly Cloudy
5:15 AM 24.8 °F - 19.4 °F 80% 29.72 in 10.0 mi Calm Calm - N/A   Scattered Clouds
5:35 AM 24.8 °F 19.1 °F 19.4 °F 80% 29.71 in 10.0 mi SE 4.6 mph - N/A   Scattered Clouds
5:55 AM 17.6 °F 12.3 °F 15.8 °F 93% 29.70 in 10.0 mi SSW 3.5 mph - N/A   Clear
6:15 AM 17.6 °F - 15.8 °F 93% 29.71 in 10.0 mi Calm Calm - N/A   Clear
6:35 AM 21.2 °F 13.6 °F 19.4 °F 93% 29.69 in 10.0 mi SSE 5.8 mph - N/A   Clear
6:55 AM 23.0 °F - 19.4 °F 86% 29.68 in 10.0 mi Calm Calm - N/A   Clear
7:35 AM 21.2 °F 13.6 °F 17.6 °F 86% 29.70 in 10.0 mi SSW 5.8 mph - N/A   Clear
7:55 AM 17.6 °F 12.3 °F 15.8 °F 93% 29.70 in 10.0 mi West 3.5 mph - N/A   Clear
8:15 AM 15.8 °F - 12.2 °F 86% 29.71 in 9.0 mi Calm Calm - N/A   Clear
8:55 AM 15.8 °F - 14.0 °F 93% 29.71 in 9.0 mi Calm Calm - N/A   Clear
9:15 AM 15.8 °F - 14.0 °F 93% 29.70 in 9.0 mi Calm Calm - N/A   Clear
9:35 AM 15.8 °F 10.2 °F 14.0 °F 93% 29.71 in 8.0 mi West 3.5 mph - N/A   Clear
9:55 AM 19.4 °F - 15.8 °F 86% 29.72 in 9.0 mi Calm Calm - N/A   Clear
10:35 AM 24.8 °F - 19.4 °F 80% 29.73 in 10.0 mi Calm Calm - N/A   Clear
10:55 AM 28.4 °F 21.2 °F 23.0 °F 80% 29.74 in 10.0 mi WSW 6.9 mph - N/A   Clear
11:15 AM 30.2 °F 22.6 °F 24.8 °F 80% 29.75 in 10.0 mi WSW 8.1 mph - N/A   Clear
11:35 AM 32.0 °F 23.6 °F 24.8 °F 75% 29.75 in 10.0 mi WSW 10.4 mph - N/A   Clear
11:55 AM 32.0 °F 24.2 °F 26.6 °F 80% 29.75 in 10.0 mi WSW 9.2 mph - N/A   Clear
12:15 PM 33.8 °F 27.0 °F 26.6 °F 75% 29.76 in 10.0 mi WSW 8.1 mph - N/A   Clear
12:35 PM 35.6 °F 29.9 °F 26.6 °F 70% 29.76 in 10.0 mi WSW 6.9 mph - N/A   Clear
12:55 PM 35.6 °F 30.7 °F 28.4 °F 75% 29.76 in 10.0 mi WSW 5.8 mph - N/A   Clear
1:15 PM 37.4 °F 30.8 °F 28.4 °F 70% 29.77 in 10.0 mi NW 9.2 mph - N/A   Clear
1:35 PM 37.4 °F 29.8 °F 28.4 °F 70% 29.78 in 10.0 mi NNW 11.5 mph - N/A   Clear
1:55 PM 35.6 °F 27.5 °F 28.4 °F 75% 29.79 in 10.0 mi NNW 11.5 mph - N/A   Clear
2:15 PM 35.6 °F 26.2 °F 26.6 °F 70% 29.80 in 10.0 mi NNW 15.0 mph 18.4 mph N/A   Clear
2:35 PM 33.8 °F 23.9 °F 26.6 °F 75% 29.80 in 10.0 mi NNW 15.0 mph - N/A   Clear
2:55 PM 32.0 °F 21.2 °F 26.6 °F 80% 29.81 in 10.0 mi NNW 16.1 mph - N/A   Clear
3:35 PM 30.2 °F 19.3 °F 26.6 °F 86% 29.84 in 10.0 mi North 15.0 mph - N/A   Mostly Cloudy
3:55 PM 28.4 °F 18.0 °F 24.8 °F 86% 29.86 in 9.0 mi North 12.7 mph - N/A   Overcast
4:15 PM 28.4 °F 18.5 °F 24.8 °F 86% 29.87 in 8.0 mi North 11.5 mph - N/A   Overcast
4:35 PM 26.6 °F 16.8 °F 24.8 °F 93% 29.88 in 8.0 mi North 10.4 mph 16.1 mph N/A   Overcast
4:55 PM 28.4 °F 18.5 °F 24.8 °F 86% 29.89 in 7.0 mi NNE 11.5 mph - N/A   Overcast
5:15 PM 26.6 °F 17.5 °F 24.8 °F 93% 29.90 in 7.0 mi NNE 9.2 mph - N/A   Overcast
5:35 PM 26.6 °F 16.2 °F 24.8 °F 93% 29.91 in 6.0 mi NNE 11.5 mph - N/A   Overcast
5:55 PM 26.6 °F 17.5 °F 24.8 °F 93% 29.92 in 5.0 mi NNE 9.2 mph - N/A   Overcast
6:15 PM 26.6 °F 18.2 °F 24.8 °F 93% 29.93 in 6.0 mi NE 8.1 mph - N/A   Overcast
6:35 PM 26.6 °F 19.1 °F 23.0 °F 86% 29.95 in 9.0 mi NE 6.9 mph - N/A   Overcast
6:55 PM 26.6 °F 18.2 °F 23.0 °F 86% 29.96 in 7.0 mi NE 8.1 mph - N/A   Overcast
7:15 PM 26.6 °F 18.2 °F 23.0 °F 86% 29.96 in 7.0 mi NNE 8.1 mph - N/A   Overcast
7:35 PM 26.6 °F 17.5 °F 23.0 °F 86% 29.97 in 7.0 mi NNE 9.2 mph - N/A   Overcast
7:55 PM 24.8 °F 17.9 °F 23.0 °F 93% 29.99 in 5.0 mi NE 5.8 mph - N/A   Overcast
8:15 PM 24.8 °F 16.9 °F 23.0 °F 93% 30.00 in 5.0 mi NE 6.9 mph - N/A   Overcast
8:35 PM 24.8 °F 15.3 °F 23.0 °F 93% 30.00 in 3.0 mi NE 9.2 mph - N/A   Overcast
8:55 PM 24.8 °F 14.6 °F 23.0 °F 93% 30.02 in 2.5 mi NE 10.4 mph - N/A   Overcast
9:15 PM 24.8 °F 14.6 °F 23.0 °F 93% 30.02 in 3.0 mi ENE 10.4 mph - N/A   Overcast
9:35 PM 23.0 °F 11.7 °F 21.2 °F 93% 30.03 in 2.0 mi ENE 11.5 mph 16.1 mph N/A   Overcast
9:55 PM 23.0 °F 10.6 °F 19.4 °F 86% 30.02 in 3.0 mi ENE 13.8 mph - N/A   Overcast
10:15 PM 21.2 °F 10.1 °F 19.4 °F 93% 30.04 in 4.0 mi East 10.4 mph - N/A   Overcast
10:35 PM 21.2 °F 10.9 °F 19.4 °F 93% 30.05 in 4.0 mi East 9.2 mph - N/A   Overcast
10:55 PM 21.2 °F 10.1 °F 19.4 °F 93% 30.04 in 5.0 mi ENE 10.4 mph - N/A   Overcast
11:15 PM 21.2 °F 10.9 °F 19.4 °F 93% 30.06 in 5.0 mi East 9.2 mph - N/A   Overcast
11:35 PM 19.4 °F 10.4 °F 17.6 °F 93% 30.06 in 5.0 mi East 6.9 mph - N/A   Overcast
11:55 PM 19.4 °F 9.5 °F 17.6 °F 93% 30.07 in 5.0 mi ENE 8.1 mph - N/A   Overcast